Miscellaneous Local Product
Issued by NWS Hastings, NE

Home | Current Version | Previous Version | Graphics & Text | Print | Product List | Glossary On
Versions: 1 2 3 4 5 6 7 8 9 10 11 12 13 14 15 16 17 18 19 20 21 22 23 24 25 26 27 28 29 30 31 32 33 34 35 36 37 38 39 40 41 42 43 44 45 46 47 48 49 50
000
AXUS43 KGID 150002
MISGRI

GID CWA HOURLY WEATHER ROUNDUP
NATIONAL WEATHER SERVICE HASTINGS NE
700 PM CDT SUN SEP 14 2014

NOTE: "FAIR" INDICATES FEW OR NO CLOUDS BELOW 12,000 FEET WITH NO
SIGNIFICANT WEATHER AND/OR OBSTRUCTIONS TO VISIBILITY.

...SOUTH CENTRAL NEBRASKA...

CITY           SKY/WX    TMP DP  RH WIND       PRES   REMARKS
GRAND ISLAND   CLOUDY    66  53  63 SE8       30.05R
HASTINGS       MOCLDY    66  51  58 SE9       30.02F
KEARNEY        MOCLDY    64  54  68 E7        30.03F
ORD            CLOUDY    64  54  69 E6        30.03S
YORK           CLOUDY    66  55  68 S6        30.06R
AURORA         CLOUDY    66  51  58 SE5       30.05R
LEXINGTON      CLOUDY    67  57  69 E9        30.01S
HOLDREGE       PTCLDY    66  54  66 CALM      30.00F
HEBRON         CLOUDY    67  52  58 E7        30.04F

...NEBRASKA PANHANDLE...

CITY           SKY/WX    TMP DP  RH WIND       PRES   REMARKS
CHADRON        MOSUNNY   60  44  55 N13       30.07R
ALLIANCE       MOSUNNY   65  51  60 N15       30.03R
SCOTTSBLUFF    MOSUNNY   66  49  54 N14       30.03R
SIDNEY         PTSUNNY   76  42  29 N3        30.00S

...WESTERN AND NORTH CENTRAL NEBRASKA...

CITY           SKY/WX    TMP DP  RH WIND       PRES   REMARKS
VALENTINE      CLOUDY    59  44  57 E16       30.07R
AINSWORTH      CLOUDY    58  47  65 NE10G16   30.07R
ONEILL         CLOUDY    62  53  72 NE8       30.06S
BROKEN BOW     CLOUDY    67  54  63 SE8       30.03S
IMPERIAL       CLEAR     71  56  58 SE6       29.98R
NORTH PLATTE   CLOUDY    68  57  68 SE7       30.00R
MCCOOK         CLEAR     74  58  57 SE10      29.95F

...EASTERN NEBRASKA...

CITY           SKY/WX    TMP DP  RH WIND       PRES   REMARKS
NORFOLK        CLOUDY    65  53  65 E6        30.07R
SO SIOUX CITY  PTCLDY    65  52  62 SE3       30.09S
TEKAMAH        CLOUDY    67  54  63 E5        30.08R
ALBION         MOCLDY    64  53  67 SE3       30.06S
OMAHA EPPLEY   MOCLDY    68  51  54 SE9       30.07R
OFFUTT AFB     PTCLDY    67  55  65 E7        30.07R
LINCOLN        CLOUDY    69  52  54 SE7       30.06S
NEBRASKA CITY  CLOUDY    67  47  48 S7        30.08S
BEATRICE       CLOUDY    68  53  58 SE7       30.06F
FALLS CITY     CLOUDY    69  55  60 S6        30.08R

...NORTHERN KANSAS...

CITY           SKY/WX    TMP DP  RH WIND       PRES   REMARKS
GOODLAND       SUNNY     74  56  53 S14       29.97F
HILL CITY      CLEAR     80  60  50 SE7       29.95F
NORTON         CLEAR     73  55  53 E9        29.95S
PHILLIPSBURG   CLEAR     73  57  56 E13G18    29.96F
SMITH CENTER   CLEAR     70  57  64 E16       29.99F
BELOIT         PTCLDY    73  59  60 E8        29.98F
HAYS           MOCLDY    81  63  54 SE9       29.95F
RUSSELL        MOCLDY    79  62  56 SE12      29.95F
CONCORDIA      CLOUDY    71  61  70 SE7       30.01F
SALINA         PTCLDY    76  59  55 SE12      30.00F
TOPEKA         CLOUDY    72  55  55 S8        30.09R



USA.gov is the U.S. government's official web portal to all federal, state and local government web resources and services.